Humidity-temperature Sensor

Selected Measurement Type: Air Temperature

 
Air Temperature [°C]     6 entries per hour
Showing data from 9/3/2020 (00:00:00 Z) to 8/27/2020 (00:01:00 Z)
Previous Next [ Day | 3-Days | 7-Days ]
First Last
Prev [ Day | 3-Days | 7-Days ] Next
First Last

Start Time:     :
End Time:     :     
Time (in GMT) :00 :50 :40 :30 :20 :10
Previous Next [ Day | 3-Days | 7-Days ]
First Last
Prev [ Day | 3-Days | 7-Days ] Next
First Last


123 => good data
MM => data is determined as missing
-- => data not received/configured
Back to Top Back to Top
9/3/2020 00:00 to 23:10 26.62 26.49 26.70 27.01 26.94 26.76
9/2/2020 23:00 to 22:10 26.86 26.75 26.79 26.79 26.70 26.49
9/2/2020 22:00 to 21:10 26.52 26.22 26.44 25.96 25.95 25.67
9/2/2020 21:00 to 20:10 25.94 25.38 25.64 25.64 25.79 25.80
9/2/2020 20:00 to 19:10 25.66 25.70 25.65 25.59 25.87 25.99
9/2/2020 19:00 to 18:10 26.47 26.22 26.04 25.99 25.85 25.65
9/2/2020 18:00 to 17:10 25.69 26.13 26.00 26.22 26.89 28.14
9/2/2020 17:00 to 16:10 27.92 27.82 27.80 27.82 27.80 27.75
9/2/2020 16:00 to 15:10 27.64 27.49 27.52 27.78 27.88 27.66
9/2/2020 15:00 to 14:10 27.80 27.67 27.67 27.62 27.74 27.74
9/2/2020 14:00 to 13:10 27.76 27.71 27.65 27.72 27.76 27.57
9/2/2020 13:00 to 12:10 27.53 27.63 27.68 27.67 27.74 27.67
9/2/2020 12:00 to 11:10 27.68 27.75 27.85 27.78 27.79 27.91
9/2/2020 11:00 to 10:10 28.19 28.00 28.04 27.98 28.03 27.84
9/2/2020 10:00 to 9:10 28.18 28.07 28.06 28.08 28.00 27.97
9/2/2020 09:00 to 8:10 27.98 27.85 27.89 27.87 27.80 27.87
9/2/2020 08:00 to 7:10 27.88 27.81 27.76 27.65 27.83 27.83
9/2/2020 07:00 to 6:10 27.78 27.65 27.71 27.69 27.76 27.71
9/2/2020 06:00 to 5:10 27.74 27.55 27.64 27.77 27.79 27.52
9/2/2020 05:00 to 4:10 27.39 27.40 27.61 27.57 27.54 27.53
9/2/2020 04:00 to 3:10 27.61 27.67 27.64 27.60 27.52 27.48
9/2/2020 03:00 to 2:10 27.50 27.66 27.58 27.26 27.41 27.47
9/2/2020 02:00 to 1:10 27.39 27.38 27.21 27.26 27.18 27.01
9/2/2020 01:00 to 0:10 26.99 26.90 27.09 27.03 27.06 27.15
9/2/2020 00:00 to 23:10 27.14 27.04 27.24 27.22 27.17 27.20
9/1/2020 23:00 to 22:10 27.34 27.43 27.35 27.29 27.34 27.27
9/1/2020 22:00 to 21:10 27.19 26.97 26.79 26.88 26.62 26.68
9/1/2020 21:00 to 20:10 26.71 26.75 26.67 26.66 26.66 26.76
9/1/2020 20:00 to 19:10 26.70 26.44 26.38 26.12 25.83 25.91
9/1/2020 19:00 to 18:10 25.77 25.27 25.48 25.20 25.98 26.24
9/1/2020 18:00 to 17:10 26.54 26.51 26.49 26.77 26.78 27.03
9/1/2020 17:00 to 16:10 27.03 26.90 26.85 26.48 26.34 26.03
9/1/2020 16:00 to 15:10 25.62 25.56 25.78 25.86 27.01 27.77
9/1/2020 15:00 to 14:10 27.88 27.77 27.75 27.69 27.76 27.75
9/1/2020 14:00 to 13:10 27.72 27.68 27.69 27.63 27.78 27.64
9/1/2020 13:00 to 12:10 27.60 27.80 27.81 27.83 27.76 27.71
9/1/2020 12:00 to 11:10 27.81 27.71 27.70 27.67 27.70 27.66
9/1/2020 11:00 to 10:10 27.69 27.58 27.56 27.59 27.64 27.83
9/1/2020 10:00 to 9:10 27.74 27.56 27.63 27.60 27.48 27.50
9/1/2020 09:00 to 8:10 27.43 27.29 27.36 27.38 27.31 27.04
9/1/2020 08:00 to 7:10 26.85 27.06 26.96 26.94 26.99 26.90
9/1/2020 07:00 to 6:10 27.02 27.16 27.55 27.67 27.59 27.66
9/1/2020 06:00 to 5:10 27.59 27.63 27.61 27.59 27.35 27.23
9/1/2020 05:00 to 4:10 27.17 27.14 27.18 27.16 27.10 27.11
9/1/2020 04:00 to 3:10 27.14 27.21 27.17 27.15 27.16 27.20
9/1/2020 03:00 to 2:10 27.27 26.92 26.74 26.46 26.43 26.44
9/1/2020 02:00 to 1:10 26.28 26.19 25.97 25.97 25.83 25.82
9/1/2020 01:00 to 0:10 25.38 25.63 25.65 25.62 25.64 25.39
9/1/2020 00:00 to 23:10 25.34 25.26 25.32 25.07 25.10 24.86
8/31/2020 23:00 to 22:10 24.94 25.13 25.14 25.03 25.18 25.41
8/31/2020 22:00 to 21:10 25.67 26.11 26.11 25.66 25.38 24.87
8/31/2020 21:00 to 20:10 25.36 25.67 26.47 26.53 27.27 27.21
8/31/2020 20:00 to 19:10 27.06 26.83 26.51 26.65 27.66 27.28
8/31/2020 19:00 to 18:10 27.03 27.12 26.95 27.10 27.09 27.69
8/31/2020 18:00 to 17:10 27.85 27.95 27.80 27.73 27.56 27.48
8/31/2020 17:00 to 16:10 27.14 27.03 26.72 26.69 27.38 27.58
8/31/2020 16:00 to 15:10 27.18 26.34 26.19 26.96 27.06 27.18
8/31/2020 15:00 to 14:10 26.73 27.46 28.12 28.18 28.10 28.11
8/31/2020 14:00 to 13:10 27.96 27.23 28.04 28.09 27.75 27.37
8/31/2020 13:00 to 12:10 26.78 27.73 28.21 28.29 28.18 28.22
8/31/2020 12:00 to 11:10 28.24 28.17 28.16 28.34 28.36 28.41
8/31/2020 11:00 to 10:10 28.30 28.31 28.31 28.39 28.36 28.45
8/31/2020 10:00 to 9:10 28.34 28.40 28.35 28.39 28.50 28.35
8/31/2020 09:00 to 8:10 28.35 28.34 28.43 28.33 28.29 28.33
8/31/2020 08:00 to 7:10 28.22 28.28 28.18 28.27 28.18 27.81
8/31/2020 07:00 to 6:10 27.81 27.50 27.43 27.39 27.26 26.33
8/31/2020 06:00 to 5:10 26.07 27.29 27.31 27.20 27.06 26.92
8/31/2020 05:00 to 4:10 26.50 26.40 27.26 27.85 28.24 28.38
8/31/2020 04:00 to 3:10 28.36 28.27 28.39 28.56 28.38 28.04
8/31/2020 03:00 to 2:10 27.79 28.22 27.57 28.09 28.56 28.68
8/31/2020 02:00 to 1:10 28.49 28.77 28.62 28.47 28.50 28.28
8/31/2020 01:00 to 0:10 28.44 28.49 28.40 28.40 28.31 28.37
8/31/2020 00:00 to 23:10 28.54 28.50 28.53 28.53 28.55 28.52
8/30/2020 23:00 to 22:10 28.31 28.47 28.31 28.28 28.32 28.43
8/30/2020 22:00 to 21:10 28.34 28.44 28.30 28.43 28.38 28.39
8/30/2020 21:00 to 20:10 28.33 28.35 28.34 28.42 28.39 28.41
8/30/2020 20:00 to 19:10 28.40 28.45 28.31 28.23 28.38 28.43
8/30/2020 19:00 to 18:10 28.38 28.43 28.39 28.08 27.90 28.06
8/30/2020 18:00 to 17:10 28.04 27.97 28.10 28.18 28.28 28.31
8/30/2020 17:00 to 16:10 28.28 28.24 28.24 28.11 28.00 28.05
8/30/2020 16:00 to 15:10 28.21 28.34 28.36 28.27 28.40 28.34
8/30/2020 15:00 to 14:10 28.36 28.36 28.29 28.37 28.33 28.19
8/30/2020 14:00 to 13:10 28.34 28.30 28.40 28.36 28.23 28.32
8/30/2020 13:00 to 12:10 28.27 28.28 28.32 28.37 28.37 28.29
8/30/2020 12:00 to 11:10 28.34 28.35 28.37 28.32 28.36 28.31
8/30/2020 11:00 to 10:10 28.41 28.34 28.43 28.53 28.52 28.54
8/30/2020 10:00 to 9:10 28.65 28.64 28.59 28.64 28.69 28.70
8/30/2020 09:00 to 8:10 28.75 28.58 28.63 28.60 28.56 28.44
8/30/2020 08:00 to 7:10 28.43 28.39 28.36 28.31 28.17 28.04
8/30/2020 07:00 to 6:10 27.91 27.89 27.53 27.56 27.94 27.99
8/30/2020 06:00 to 5:10 27.97 28.08 28.01 28.05 27.97 27.92
8/30/2020 05:00 to 4:10 27.93 27.76 27.52 26.92 27.01 27.01
8/30/2020 04:00 to 3:10 27.31 27.15 27.00 27.38 27.44 28.24
8/30/2020 03:00 to 2:10 28.26 28.25 28.38 28.35 28.37 28.37
8/30/2020 02:00 to 1:10 28.35 28.26 28.25 28.23 28.28 28.18
8/30/2020 01:00 to 0:10 28.09 28.17 28.01 28.10 28.21 28.21
8/30/2020 00:00 to 23:10 28.30 28.25 28.14 28.20 28.07 28.07
8/29/2020 23:00 to 22:10 28.05 28.03 28.03 28.09 28.02 28.10
8/29/2020 22:00 to 21:10 28.27 28.21 28.22 28.08 28.16 28.09
8/29/2020 21:00 to 20:10 28.04 28.05 27.93 27.94 27.95 27.96
8/29/2020 20:00 to 19:10 28.08 28.04 28.08 28.02 27.89 27.82
8/29/2020 19:00 to 18:10 27.98 28.04 27.96 28.11 28.07 28.13
8/29/2020 18:00 to 17:10 27.99 27.94 27.80 27.67 27.66 27.63
8/29/2020 17:00 to 16:10 27.58 27.74 27.74 27.75 27.72 27.63
8/29/2020 16:00 to 15:10 27.70 27.57 27.68 27.69 27.84 27.73
8/29/2020 15:00 to 14:10 27.80 27.73 27.72 27.69 27.68 27.66
8/29/2020 14:00 to 13:10 27.52 27.60 27.46 27.67 27.50 27.54
8/29/2020 13:00 to 12:10 27.60 27.39 27.45 27.51 27.49 27.54
8/29/2020 12:00 to 11:10 27.38 27.54 27.50 27.54 27.48 27.45
8/29/2020 11:00 to 10:10 27.56 27.56 27.47 27.72 27.60 27.70
8/29/2020 10:00 to 9:10 27.69 27.74 27.52 27.60 27.45 27.39
8/29/2020 09:00 to 8:10 27.34 27.44 27.37 27.45 27.53 27.47
8/29/2020 08:00 to 7:10 27.51 27.58 27.58 27.52 27.69 27.42
8/29/2020 07:00 to 6:10 27.36 27.41 27.46 27.50 27.39 27.47
8/29/2020 06:00 to 5:10 27.38 27.40 27.33 27.26 27.25 27.28
8/29/2020 05:00 to 4:10 27.19 27.20 26.95 26.96 26.99 26.94
8/29/2020 04:00 to 3:10 26.93 26.82 26.85 26.71 26.66 26.74
8/29/2020 03:00 to 2:10 26.67 26.48 26.61 26.34 26.29 26.21
8/29/2020 02:00 to 1:10 25.95 25.68 25.51 25.45 25.22 25.15
8/29/2020 01:00 to 0:10 25.03 25.45 25.67 25.91 26.41 26.41
8/29/2020 00:00 to 23:10 26.67 26.27 26.32 26.01 25.59 25.77
8/28/2020 23:00 to 22:10 25.62 25.47 25.34 25.27 26.07 26.79
8/28/2020 22:00 to 21:10 27.17 26.97 26.80 26.64 26.50 26.27
8/28/2020 21:00 to 20:10 25.90 25.72 25.53 25.06 24.94 25.40
8/28/2020 20:00 to 19:10 25.09 25.43 25.10 25.08 25.50 25.91
8/28/2020 19:00 to 18:10 27.78 28.03 28.12 27.92 28.06 28.03
8/28/2020 18:00 to 17:10 28.07 27.98 27.95 28.02 27.97 28.02
8/28/2020 17:00 to 16:10 28.06 28.11 28.02 28.03 28.05 28.03
8/28/2020 16:00 to 15:10 27.93 27.94 27.90 27.88 27.89 27.90
8/28/2020 15:00 to 14:10 27.79 27.77 27.81 27.51 27.40 27.48
8/28/2020 14:00 to 13:10 27.66 27.52 27.58 27.59 27.59 27.63
8/28/2020 13:00 to 12:10 27.45 27.07 27.48 27.49 27.30 26.72
8/28/2020 12:00 to 11:10 27.41 27.70 27.69 27.59 27.64 27.51
8/28/2020 11:00 to 10:10 27.50 27.60 27.43 27.45 27.34 27.14
8/28/2020 10:00 to 9:10 26.99 27.20 27.44 27.47 27.46 27.37
8/28/2020 09:00 to 8:10 26.91 26.24 26.20 25.92 25.98 26.56
8/28/2020 08:00 to 7:10 26.51 26.62 26.28 26.08 26.29 26.39
8/28/2020 07:00 to 6:10 26.39 26.33 26.74 27.20 27.06 27.06
8/28/2020 06:00 to 5:10 27.51 27.53 27.61 28.01 28.04 28.02
8/28/2020 05:00 to 4:10 28.04 28.08 28.12 28.43 28.34 28.42
8/28/2020 04:00 to 3:10 28.28 28.31 28.30 28.32 28.31 28.30
8/28/2020 03:00 to 2:10 28.22 28.25 28.22 28.20 27.99 27.75
8/28/2020 02:00 to 1:10 27.74 27.74 27.82 28.02 27.75 27.63
8/28/2020 01:00 to 0:10 27.88 27.89 28.00 27.97 28.00 27.91
8/28/2020 00:00 to 23:10 27.96 27.96 27.77 27.83 27.76 27.67
8/27/2020 23:00 to 22:10 27.65 27.42 27.55 27.57 27.62 27.27
8/27/2020 22:00 to 21:10 26.96 26.60 26.26 25.92 26.21 27.22
8/27/2020 21:00 to 20:10 27.87 27.94 27.96 27.98 27.93 27.98
8/27/2020 20:00 to 19:10 27.84 27.84 27.72 27.76 27.89 27.84
8/27/2020 19:00 to 18:10 27.89 27.77 27.87 27.95 27.88 27.79
8/27/2020 18:00 to 17:10 27.81 27.74 27.48 27.29 27.25 27.14
8/27/2020 17:00 to 16:10 27.16 27.11 27.10 27.04 27.00 27.07
8/27/2020 16:00 to 15:10 27.04 26.88 26.94 26.92 27.00 26.95
8/27/2020 15:00 to 14:10 27.02 27.04 27.04 26.85 26.88 26.82
8/27/2020 14:00 to 13:10 26.85 26.78 26.79 26.62 26.77 26.77
8/27/2020 13:00 to 12:10 26.81 26.93 26.79 26.60 26.71 26.64
8/27/2020 12:00 to 11:10 26.65 26.67 26.82 26.79 26.88 26.94
8/27/2020 11:00 to 10:10 26.92 27.08 27.13 26.97 27.09 27.04
8/27/2020 10:00 to 9:10 27.06 26.87 26.56 26.34 26.27 26.06
8/27/2020 09:00 to 8:10 25.97 26.09 25.98 26.24 26.55 26.67
8/27/2020 08:00 to 7:10 26.60 26.83 26.64 26.51 26.48 26.60
8/27/2020 07:00 to 6:10 26.25 26.26 26.41 25.72 25.79 26.06
8/27/2020 06:00 to 5:10 25.49 25.66 25.88 26.92 27.47 27.70
8/27/2020 05:00 to 4:10 27.71 27.77 27.72 27.72 27.65 27.96
8/27/2020 04:00 to 3:10 27.89 27.92 27.83 27.98 28.02 27.84
8/27/2020 03:00 to 2:10 28.31 28.48 28.09 28.63 28.49 28.47
8/27/2020 02:00 to 1:10 28.60 28.50 28.39 28.36 28.29 28.30
8/27/2020 01:00 to 0:10 28.27 28.39 28.34 28.34 28.20 28.04